Regional Weather Roundup
Issued by NWS

Home | Current Version | Previous Version | Graphics & Text | Print | Product List | Glossary On
Versions: 1 2 3 4 5 6 7 8 9 10 11 12 13 14 15 16 17 18 19 20 21 22 23 24 25 26 27 28 29 30 31 32 33 34 35 36 37 38 39 40 41 42 43 44 45 46 47 48 49 50
000
ASUS43 KLOT 251803
RWRIL

ILLINOIS REGIONAL WEATHER ROUNDUP
NATIONAL WEATHER SERVICE CHICAGO/ROMEOVILLE IL
1200 PM CST SAT FEB 25 2017

NOTE: "FAIR" INDICATES FEW OR NO CLOUDS BELOW 12,000 FEET WITH NO
SIGNIFICANT WEATHER AND/OR OBSTRUCTIONS TO VISIBILITY.

* THESE STATIONS ARE NOT UNDER NWS QUALITY CONTROL. THEY ALSO MAY NOT
  REPORT WEATHER SUCH AS PRECIPITATION OR FOG.

ILZ001-002-007-009-015-016-024-251900-
NORTHWEST ILLINOIS

CITY           SKY/WX    TMP DP  RH WIND       PRES   REMARKS
MOLINE         PTSUNNY   27  16  63 NW18      29.98R WCI  14
6HR MIN TEMP:  22; 6HR MAX TEMP:  27;

STERLING*      MOSUNNY   27  17  66 NW17      29.94R WCI  14
$$

ILZ003-004-008-010-011-017-018-251900-
NORTH CENTRAL ILLINOIS

CITY           SKY/WX    TMP DP  RH WIND       PRES   REMARKS
ROCKFORD       FLURRIES  24  15  68 W20       29.89S WCI  10
6HR MIN TEMP:  20; 6HR MAX TEMP:  25; 6HR PCP: TRACE;

FREEPORT*      MOSUNNY   21  12  68 W21       29.91R WCI   6
ROCHELLE*      CLOUDY    24  18  77 W20       29.89S WCI  10
DE KALB*       CLOUDY    23  16  74 W20G26    29.87R WCI   8
PERU*          CLOUDY    24  15  69 W20G30    29.94R WCI  10
$$

ILZ005-006-012>014-019>023-251900-
NORTHEAST ILLINOIS

CITY           SKY/WX    TMP DP  RH WIND       PRES   REMARKS
CHICAGO-OHARE  FLURRIES  25  14  63 W20G28    29.85R WCI  11
6HR MIN TEMP:  23; 6HR MAX TEMP:  26; 6HR PCP: TRACE;

CHICAGO-MIDWAY LGT SNOW  25  15  66 W14       29.86R WCI  13
6HR MIN TEMP:  23; 6HR MAX TEMP:  26; 6HR PCP: TRACE;

AURORA         CLOUDY    25  16  68 W21       29.88R WCI  11
6HR MIN TEMP:  22; 6HR MAX TEMP:  26; 6HR PCP: TRACE;

LANSING*       FLURRIES  26  18  71 W16G23    29.87S WCI  13
JOLIET*        CLOUDY    27  15  61 W15G24    29.90R WCI  15
WAUKEGAN       CLOUDY    22  13  68 W10G22    29.83R WCI  11
6HR MIN TEMP:  20; 6HR MAX TEMP:  23; 6HR PCP: TRACE;

DUPAGE AIRPORT CLOUDY    24  13  62 W17G26    29.86R WCI  11
6HR MIN TEMP:  21; 6HR MAX TEMP:  24; 6HR PCP: TRACE;

KANKAKEE*      FLURRIES  26  15  61 W22G29    29.91R WCI  12
WHEELING       LGT SNOW  24  15  68 NW16G23   29.86R WCI  11
6HR MIN TEMP:  21; 6HR MAX TEMP:  24; 6HR PCP: TRACE;

MORRIS*        CLOUDY    26  16  65 NW20G26   29.90R WCI  13
ROMEOVILLE*    CLOUDY    26  18  74 W18G28    29.89R WCI  12
NORTHERLY ISL    N/A     25  14  63 W16         N/A  WCI  12
$$

LMZ740>746-251900-
SOUTHERN LAKE MICHIGAN

STATION/POSITION SKY/WX   TEMP    WIND        PRES    VSBY  WAVE
                          AIR SEA DIR/SP/G                  HT/PER
                          (F)     (DEG/KT/KT) (MB)    (MI)  (FT/S)
HARRISON CRIB              24     290/ 17/ 20   N/A
BURNHAM HARBOR             25     240/  9/ 17   N/A
CALUMET HARBOR             24     270/  8/ 14 1010.6R
BURNS HARBOR               25     280/ 21/ 24 1011.5R
MICHIGAN CITY              24     240/ 25/ 28   N/A
$$

ILZ025>027-034>036-040-047-049-050-058-095>099-251900-
WEST-CENTRAL ILLINOIS

CITY           SKY/WX    TMP DP  RH WIND       PRES   REMARKS
QUINCY         MOSUNNY   30  15  53 W22       30.06R WCI  17
GALESBURG*     CLOUDY    24  18  76 W20G25    30.00R WCI  10
MACOMB*        PTSUNNY   29  19  68 W21G28    30.05R WCI  15
JACKSONVILLE*  MOSUNNY   31  16  53 W23G30    30.04S WCI  18
PITTSFIELD*    MOSUNNY   30  16  56 W16G24    30.07S WCI  19
$$

ILZ028>032-037-038-041>044-048-051>054-059>061-251900-
CENTRAL ILLINOIS

CITY           SKY/WX    TMP DP  RH WIND       PRES   REMARKS
PONTIAC        PTSUNNY   29  16  58 W23G31    29.94R WCI  15
BLOOMINGTON    PTSUNNY   28  17  63 W20G29    29.96R WCI  15
DECATUR        MOSUNNY   30  13  49 W20G29    29.99R WCI  17
PEORIA         MOSUNNY   28  14  55 W15G26    29.99R WCI  16
6HR MIN TEMP:  23; 6HR MAX TEMP:  28; 6HR PCP: TRACE;

LACON*         CLOUDY    27  15  59 W15G28    29.96S WCI  15
LINCOLN*       PTSUNNY   31  16  54 NW12G22   30.00R WCI  21
SPRINGFIELD    MOSUNNY   33  14  45 W22G31    30.02R WCI  21
6HR MIN TEMP:  25; 6HR MAX TEMP:  34; 6HR PCP: TRACE;

TAYLORVILLE    MOSUNNY   31  13  48 W21G26    30.02S WCI  19
6HR MIN TEMP:  25; 6HR MAX TEMP:  32;

$$

ILZ033-039-045-046-055>057-062-063-251900-
EAST-CENTRAL ILLINOIS

CITY           SKY/WX    TMP DP  RH WIND       PRES   REMARKS
CHAMPAIGN      PTSUNNY   30  15  53 W24       29.96R WCI  16
RANTOUL*       CLOUDY    32  22  68 W20G25    29.95R WCI  20
MATTOON        PTSUNNY   33  15  47 W22G32    29.98S WCI  21
$$

ILZ079-100>102-251900-
SOUTHWEST ILLINOIS

CITY           SKY/WX    TMP DP  RH WIND       PRES   REMARKS
ALTON          MOSUNNY   34  14  44 NW14G23   30.07R WCI  24
BELLEVILLE     SUNNY     37  13  38 W9G21     30.07R WCI  30
CAHOKIA*       SUNNY     36  13  38 W14G23    30.09R WCI  27
SPARTA*        MOSUNNY   35  15  44 W15G21    30.09R WCI  25
$$

ILZ064>066-069>071-074>076-080>082-084>086-088>090-092>094-251900-
SOUTH-CENTRAL ILLINOIS

CITY           SKY/WX    TMP DP  RH WIND       PRES   REMARKS
CARBONDALE     SUNNY     37  17  44 NW14      30.08R WCI  28
6HR MIN TEMP:  30; 6HR MAX TEMP:  37;

CAIRO*         SUNNY     38  19  46 W13G18    30.10S WCI  30
EFFINGHAM*     PTSUNNY   34  17  51 W15G25    30.04S WCI  24
MARION         MOSUNNY   41  19  42 NW12G21   30.08R
MT. VERNON     MOSUNNY   34  16  47 W10G22    30.06R WCI  26
CENTRALIA*     MOSUNNY   35  18  50 NW13G25   30.06R WCI  26
SALEM*         PTSUNNY   35  17  46 W16G25    30.05S WCI  25
METROPOLIS*    SUNNY     39  20  45 W9        30.08F WCI  33
$$

ILZ067-068-072-073-078-083-087-091-251900-
SOUTHEAST ILLINOIS

CITY           SKY/WX    TMP DP  RH WIND       PRES   REMARKS
LAWRENCEVILLE  PTSUNNY   36  19  50 W18       30.02R WCI  26
FLORA*         PTSUNNY   36  18  49 NW16G23   30.04R WCI  26
FAIRFIELD*     MOSUNNY   35  18  50 W9        30.05R WCI  28
HARRISBURG*    MOSUNNY   38  21  49 W12G24    30.07S WCI  31
ROBINSON*      CLOUDY    32  20  60 W16       30.02S WCI  22
CARMI*         SUNNY     36  18  48 W16G26    30.05S WCI  26
$$

ABBREVIATIONS USED IN REMARKS
   TC - TEMPERATURE IN CELSIUS
  WCI - WIND CHILL INDEX
   HX - HEAT INDEX
  VSB - VISIBILITY
$$




USA.gov is the U.S. government's official web portal to all federal, state and local government web resources and services.